Location: Mococo
(38.0255°N, 122.1161°W)
Time: 02:01:53
(UTC+00:00)

Cosmos 1300 Rocket - Pass Details

Date: 13 February 2026
Orbit: 595 x 619 km, 82.5° (Epoch: 13 March)

Event Time Altitude Azimuth Distance (km) Brightness Sun altitude
Rises 14:16:07 0° 204° (SSW) 2,871 6.8 -9.4°
Reaches altitude 10° 14:18:27 10° 213° (SSW) 1,973 5.9 -8.9°
Maximum altitude 14:22:31 38° 281° (WNW) 945 4.0 -8.1°
Drops below altitude 10° 14:26:39 10° 351° (N) 1,992 6.0 -7.3°
Sets 14:29:02 0° 359° (N) 2,902 6.9 -6.9°
